Time,TemperatureF,DewpointF,PressureIn,WindDirection,WindDirectionDegrees,WindSpeedMPH,WindSpeedGustMPH,Humidity,HourlyPrecipIn,Conditions,Clouds,dailyrainin,SoftwareType,DateUTC
2013-03-28 00:02:00,-3.0,-9.0,30.08,SW,221,0.0,1.0,74,0.00,,,0.00,,2013-03-28 08:02:00,
2013-03-28 00:11:00,-3.0,-9.0,30.08,SW,221,0.0,1.0,74,0.00,,,0.00,,2013-03-28 08:11:00,
2013-03-28 00:21:00,-4.0,-10.0,30.08,SW,221,0.0,1.0,75,0.00,,,0.00,,2013-03-28 08:21:00,
2013-03-28 00:32:00,-4.0,-10.0,30.07,SW,221,0.0,1.0,76,0.00,,,0.00,,2013-03-28 08:32:00,
2013-03-28 00:42:00,-4.0,-10.0,30.07,SW,221,0.0,1.0,76,0.00,,,0.00,,2013-03-28 08:42:00,
2013-03-28 00:52:00,-4.0,-9.0,30.07,SW,221,0.0,1.0,77,0.00,,,0.00,,2013-03-28 08:52:00,
2013-03-28 01:01:00,-5.0,-10.0,30.07,SW,221,0.0,1.0,77,0.00,,,0.00,,2013-03-28 09:01:00,
2013-03-28 01:11:00,-5.0,-10.0,30.07,SW,221,0.0,1.0,77,0.00,,,0.00,,2013-03-28 09:11:00,
2013-03-28 01:22:00,-5.0,-10.0,30.07,SW,221,0.0,1.0,77,0.00,,,0.00,,2013-03-28 09:22:00,
2013-03-28 01:32:00,-5.0,-10.0,30.07,SW,221,0.0,1.0,77,0.00,,,0.00,,2013-03-28 09:32:00,
2013-03-28 01:42:00,-5.0,-10.0,30.07,SW,221,0.0,1.0,77,0.00,,,0.00,,2013-03-28 09:42:00,
2013-03-28 01:52:00,-5.0,-10.0,30.06,SW,228,0.0,1.0,78,0.00,,,0.00,,2013-03-28 09:52:00,
2013-03-28 02:02:00,-6.0,-11.0,30.06,SW,228,0.0,2.0,78,0.00,,,0.00,,2013-03-28 10:02:00,
2013-03-28 02:12:00,-6.0,-11.0,30.06,SW,228,0.0,2.0,78,0.00,,,0.00,,2013-03-28 10:12:00,
2013-03-28 02:22:00,-6.0,-11.0,30.06,SW,224,0.0,2.0,79,0.00,,,0.00,,2013-03-28 10:22:00,
2013-03-28 02:32:00,-6.0,-11.0,30.06,SW,223,0.0,1.0,79,0.00,,,0.00,,2013-03-28 10:32:00,
2013-03-28 02:42:00,-6.0,-11.0,30.06,SW,223,0.0,1.0,79,0.00,,,0.00,,2013-03-28 10:42:00,
2013-03-28 02:52:00,-7.0,-12.0,30.05,SW,236,0.0,1.0,80,0.00,,,0.00,,2013-03-28 10:52:00,
2013-03-28 03:02:00,-7.0,-12.0,30.05,SW,236,0.0,1.0,80,0.00,,,0.00,,2013-03-28 11:02:00,
2013-03-28 03:12:00,-7.0,-12.0,30.05,SW,236,0.0,1.0,80,0.00,,,0.00,,2013-03-28 11:12:00,
2013-03-28 03:22:00,-7.0,-11.0,30.05,SW,236,0.0,1.0,81,0.00,,,0.00,,2013-03-28 11:22:00,
2013-03-28 03:32:00,-7.0,-12.0,30.05,SW,236,0.0,1.0,80,0.00,,,0.00,,2013-03-28 11:32:00,
2013-03-28 03:42:00,-7.0,-12.0,30.05,SW,236,0.0,1.0,80,0.00,,,0.00,,2013-03-28 11:42:00,
2013-03-28 03:52:00,-8.0,-12.0,30.05,SW,236,0.0,1.0,81,0.00,,,0.00,,2013-03-28 11:52:00,
2013-03-28 04:02:00,-9.0,-13.0,30.05,SW,236,0.0,2.0,82,0.00,,,0.00,,2013-03-28 12:02:00,
2013-03-28 04:12:00,-9.0,-13.0,30.05,SW,236,0.0,2.0,82,0.00,,,0.00,,2013-03-28 12:12:00,
2013-03-28 04:22:00,-8.0,-12.0,30.04,SW,236,0.0,1.0,81,0.00,,,0.00,,2013-03-28 12:22:00,
2013-03-28 04:32:00,-9.0,-13.0,30.04,SW,236,0.0,1.0,81,0.00,,,0.00,,2013-03-28 12:32:00,
2013-03-28 04:42:00,-9.0,-13.0,30.04,SW,236,0.0,1.0,81,0.00,,,0.00,,2013-03-28 12:42:00,
2013-03-28 04:51:00,-9.0,-13.0,30.04,SW,236,0.0,1.0,83,0.00,,,0.00,,2013-03-28 12:51:00,
2013-03-28 05:02:00,-8.0,-12.0,30.03,SW,236,0.0,1.0,83,0.00,,,0.00,,2013-03-28 13:02:00,
2013-03-28 05:11:00,-8.0,-12.0,30.03,SW,236,0.0,1.0,83,0.00,,,0.00,,2013-03-28 13:11:00,
2013-03-28 05:22:00,-8.0,-12.0,30.03,SW,236,0.0,1.0,83,0.00,,,0.00,,2013-03-28 13:22:00,
2013-03-28 05:32:00,-9.0,-13.0,30.03,SW,236,0.0,1.0,82,0.00,,,0.00,,2013-03-28 13:32:00,
2013-03-28 05:41:00,-9.0,-13.0,30.03,SW,236,0.0,1.0,82,0.00,,,0.00,,2013-03-28 13:41:00,
2013-03-28 05:52:00,-10.0,-14.0,30.03,SW,236,0.0,0.0,81,0.00,,,0.00,,2013-03-28 13:52:00,
2013-03-28 06:02:00,-10.0,-14.0,30.03,SW,236,0.0,1.0,83,0.00,,,0.00,,2013-03-28 14:02:00,
2013-03-28 06:12:00,-10.0,-14.0,30.03,SW,236,0.0,1.0,83,0.00,,,0.00,,2013-03-28 14:12:00,
2013-03-28 06:22:00,-10.0,-14.0,30.03,SW,236,0.0,1.0,82,0.00,,,0.00,,2013-03-28 14:22:00,
2013-03-28 06:32:00,-10.0,-14.0,30.03,SW,236,0.0,1.0,82,0.00,,,0.00,,2013-03-28 14:32:00,
2013-03-28 06:42:00,-10.0,-14.0,30.03,SW,236,0.0,1.0,82,0.00,,,0.00,,2013-03-28 14:42:00,
2013-03-28 06:52:00,-10.0,-14.0,30.02,SW,236,0.0,0.0,83,0.00,,,0.00,,2013-03-28 14:52:00,
2013-03-28 07:01:00,-11.0,-15.0,30.02,SW,236,0.0,0.0,82,0.00,,,0.00,,2013-03-28 15:01:00,
2013-03-28 07:12:00,-11.0,-15.0,30.02,SW,236,0.0,0.0,82,0.00,,,0.00,,2013-03-28 15:12:00,
2013-03-28 07:21:00,-11.0,-15.0,30.02,SW,236,0.0,0.0,81,0.00,,,0.00,,2013-03-28 15:21:00,
2013-03-28 07:32:00,-12.0,-16.0,30.01,SW,236,0.0,1.0,80,0.00,,,0.00,,2013-03-28 15:32:00,
2013-03-28 07:43:00,-12.0,-16.0,30.01,SW,236,0.0,1.0,80,0.00,,,0.00,,2013-03-28 15:43:00,
2013-03-28 07:53:00,-13.0,-17.0,30.01,SW,236,0.0,0.0,81,0.00,,,0.00,,2013-03-28 15:53:00,
2013-03-28 08:02:00,-13.0,-17.0,30.01,SW,236,0.0,0.0,81,0.00,,,0.00,,2013-03-28 16:02:00,
2013-03-28 08:12:00,-13.0,-17.0,30.01,SW,236,0.0,0.0,81,0.00,,,0.00,,2013-03-28 16:12:00,
2013-03-28 08:22:00,-13.0,-17.0,30.01,SW,236,0.0,0.0,81,0.00,,,0.00,,2013-03-28 16:22:00,
2013-03-28 08:32:00,-12.0,-16.0,30.01,SW,236,0.0,0.0,83,0.00,,,0.00,,2013-03-28 16:32:00,
2013-03-28 08:42:00,-12.0,-16.0,30.01,SW,236,0.0,0.0,83,0.00,,,0.00,,2013-03-28 16:42:00,
2013-03-28 08:52:00,-9.0,-12.0,30.01,SW,236,0.0,1.0,85,0.00,,,0.00,,2013-03-28 16:52:00,
2013-03-28 09:02:00,-8.0,-12.0,30.00,SW,236,0.0,0.0,80,0.00,,,0.00,,2013-03-28 17:02:00,
2013-03-28 09:12:00,-8.0,-12.0,30.00,SW,236,0.0,0.0,80,0.00,,,0.00,,2013-03-28 17:12:00,
2013-03-28 09:22:00,-6.0,-11.0,30.00,SW,236,0.0,0.0,80,0.00,,,0.00,,2013-03-28 17:22:00,
2013-03-28 09:32:00,-4.0,-9.0,29.99,SW,236,0.0,0.0,78,0.00,,,0.00,,2013-03-28 17:32:00,
2013-03-28 09:42:00,-4.0,-9.0,29.99,SW,236,0.0,0.0,78,0.00,,,0.00,,2013-03-28 17:42:00,
2013-03-28 09:52:00,-3.0,-8.0,29.99,SW,236,0.0,1.0,77,0.00,,,0.00,,2013-03-28 17:52:00,
2013-03-28 10:02:00,-2.0,-7.0,29.99,SW,236,0.0,0.0,78,0.00,,,0.00,,2013-03-28 18:02:00,
2013-03-28 10:12:00,-2.0,-7.0,29.99,SW,236,0.0,0.0,78,0.00,,,0.00,,2013-03-28 18:12:00,
2013-03-28 10:22:00,0.0,-5.0,29.99,SW,236,0.0,0.0,78,0.00,,,0.00,,2013-03-28 18:22:00,
2013-03-28 10:31:00,2.0,-4.0,29.98,SW,236,0.0,0.0,75,0.00,,,0.00,,2013-03-28 18:31:00,
2013-03-28 10:42:00,2.0,-4.0,29.98,SW,236,0.0,0.0,75,0.00,,,0.00,,2013-03-28 18:42:00,
2013-03-28 10:52:00,6.0,-1.0,29.98,SW,236,0.0,0.0,72,0.00,,,0.00,,2013-03-28 18:52:00,
2013-03-28 11:01:00,10.0,1.0,29.98,SW,236,0.0,1.0,65,0.00,,,0.00,,2013-03-28 19:01:00,
2013-03-28 11:12:00,10.0,1.0,29.98,SW,236,0.0,1.0,65,0.00,,,0.00,,2013-03-28 19:12:00,
2013-03-28 11:32:00,14.0,0.0,29.98,ESE,123,0.0,3.0,54,0.00,,,0.00,,2013-03-28 19:32:00,
2013-03-28 11:52:00,14.0,1.0,29.97,ESE,123,0.0,2.0,56,0.01,,,0.01,,2013-03-28 19:52:00,
2013-03-28 12:02:00,14.0,1.0,29.97,ESE,123,0.0,2.0,56,0.01,,,0.01,,2013-03-28 20:02:00,
2013-03-28 12:12:00,14.0,1.0,29.97,ESE,123,0.0,2.0,56,0.01,,,0.01,,2013-03-28 20:12:00,
2013-03-28 12:22:00,16.0,2.0,29.96,ESE,123,0.0,1.0,54,0.01,,,0.01,,2013-03-28 20:22:00,
2013-03-28 12:32:00,20.0,3.0,29.96,North,355,0.0,3.0,46,0.01,,,0.01,,2013-03-28 20:32:00,
2013-03-28 12:42:00,20.0,3.0,29.96,North,355,0.0,3.0,46,0.01,,,0.01,,2013-03-28 20:42:00,
2013-03-28 12:53:00,20.0,3.0,29.96,North,355,0.0,3.0,46,0.01,,,0.01,,2013-03-28 20:53:00,
2013-03-28 13:02:00,22.0,2.0,29.95,NE,38,0.0,3.0,42,0.00,,,0.01,,2013-03-28 21:02:00,
2013-03-28 13:11:00,22.0,2.0,29.95,NE,38,0.0,3.0,42,0.00,,,0.01,,2013-03-28 21:11:00,
2013-03-28 13:22:00,23.0,2.0,29.95,NNE,23,2.0,5.0,39,0.00,,,0.01,,2013-03-28 21:22:00,
2013-03-28 13:32:00,24.0,3.0,29.94,North,360,0.0,7.0,39,0.00,,,0.01,,2013-03-28 21:32:00,
2013-03-28 13:42:00,24.0,3.0,29.94,North,360,0.0,7.0,39,0.00,,,0.01,,2013-03-28 21:42:00,
2013-03-28 13:53:00,25.0,4.0,29.94,NE,34,2.0,4.0,40,0.02,,,0.03,,2013-03-28 21:53:00,
2013-03-28 14:02:00,25.0,3.0,29.93,NE,52,0.0,3.0,38,0.03,,,0.04,,2013-03-28 22:02:00,
2013-03-28 14:12:00,25.0,3.0,29.93,NE,52,0.0,3.0,38,0.03,,,0.04,,2013-03-28 22:12:00,
2013-03-28 14:22:00,25.0,3.0,29.93,NE,41,1.0,4.0,38,0.04,,,0.05,,2013-03-28 22:22:00,
2013-03-28 14:32:00,26.0,4.0,29.92,East,92,2.0,6.0,39,0.04,,,0.05,,2013-03-28 22:32:00,
2013-03-28 14:42:00,26.0,4.0,29.92,East,92,2.0,6.0,39,0.04,,,0.05,,2013-03-28 22:42:00,
2013-03-28 14:52:00,26.0,4.0,29.92,SE,130,0.0,5.0,39,0.03,,,0.06,,2013-03-28 22:52:00,
2013-03-28 15:02:00,27.0,6.0,29.91,ENE,71,0.0,3.0,40,0.03,,,0.07,,2013-03-28 23:02:00,
2013-03-28 15:12:00,27.0,6.0,29.91,ENE,71,0.0,3.0,40,0.03,,,0.07,,2013-03-28 23:12:00,
2013-03-28 15:21:00,27.0,6.0,29.90,ENE,77,0.0,3.0,40,0.02,,,0.07,,2013-03-28 23:21:00,
2013-03-28 15:32:00,27.0,6.0,29.90,ENE,60,0.0,3.0,41,0.02,,,0.07,,2013-03-28 23:32:00,
2013-03-28 15:42:00,27.0,6.0,29.90,ENE,60,0.0,3.0,41,0.02,,,0.07,,2013-03-28 23:42:00,
2013-03-28 15:52:00,27.0,6.0,29.89,NE,50,1.0,4.0,40,0.02,,,0.08,,2013-03-28 23:52:00,
2013-03-28 16:02:00,28.0,6.0,29.89,East,84,1.0,5.0,39,0.01,,,0.08,,2013-03-29 00:02:00,
2013-03-28 16:11:00,28.0,6.0,29.89,East,84,1.0,5.0,39,0.01,,,0.08,,2013-03-29 00:11:00,
2013-03-28 16:22:00,28.0,6.0,29.88,ESE,120,0.0,2.0,39,0.01,,,0.08,,2013-03-29 00:22:00,
2013-03-28 16:32:00,29.0,8.0,29.88,SE,130,1.0,3.0,40,0.02,,,0.09,,2013-03-29 00:32:00,
2013-03-28 16:42:00,29.0,8.0,29.88,SE,130,1.0,3.0,40,0.02,,,0.09,,2013-03-29 00:42:00,
2013-03-28 16:52:00,29.0,8.0,29.87,NE,34,0.0,3.0,41,0.01,,,0.09,,2013-03-29 00:52:00,
2013-03-28 17:02:00,29.0,7.0,29.86,NE,34,0.0,2.0,39,0.01,,,0.09,,2013-03-29 01:02:00,
2013-03-28 17:12:00,29.0,7.0,29.86,NE,34,0.0,2.0,39,0.01,,,0.09,,2013-03-29 01:12:00,
2013-03-28 17:22:00,29.0,8.0,29.85,WNW,284,1.0,4.0,40,0.01,,,0.09,,2013-03-29 01:22:00,
2013-03-28 17:31:00,30.0,9.0,29.85,WNW,303,0.0,2.0,40,0.00,,,0.09,,2013-03-29 01:31:00,
2013-03-28 17:42:00,30.0,9.0,29.85,WNW,303,0.0,2.0,40,0.00,,,0.09,,2013-03-29 01:42:00,
2013-03-28 17:52:00,30.0,9.0,29.85,ENE,70,0.0,3.0,41,0.00,,,0.09,,2013-03-29 01:52:00,
2013-03-28 18:02:00,30.0,9.0,29.85,ENE,70,0.0,3.0,41,0.00,,,0.09,,2013-03-29 02:02:00,
2013-03-28 18:11:00,30.0,9.0,29.85,ENE,70,0.0,3.0,41,0.00,,,0.09,,2013-03-29 02:11:00,
2013-03-28 18:21:00,30.0,10.0,29.84,NE,46,0.0,1.0,42,0.01,,,0.10,,2013-03-29 02:21:00,
2013-03-28 18:32:00,30.0,10.0,29.84,NE,46,0.0,1.0,42,0.01,,,0.10,,2013-03-29 02:32:00,
2013-03-28 18:42:00,30.0,10.0,29.84,NE,46,0.0,1.0,42,0.01,,,0.10,,2013-03-29 02:42:00,
2013-03-28 18:52:00,30.0,10.0,29.83,NE,46,0.0,2.0,43,0.01,,,0.10,,2013-03-29 02:52:00,
2013-03-28 19:02:00,30.0,10.0,29.83,NE,46,0.0,2.0,43,0.01,,,0.10,,2013-03-29 03:02:00,
2013-03-28 19:12:00,30.0,10.0,29.83,NE,46,0.0,2.0,43,0.01,,,0.10,,2013-03-29 03:12:00,
2013-03-28 19:21:00,30.0,11.0,29.83,NE,45,0.0,3.0,44,0.00,,,0.10,,2013-03-29 03:21:00,
2013-03-28 19:32:00,30.0,11.0,29.82,NE,46,0.0,1.0,45,0.00,,,0.10,,2013-03-29 03:32:00,
2013-03-28 19:42:00,30.0,11.0,29.82,NE,46,0.0,1.0,45,0.00,,,0.10,,2013-03-29 03:42:00,
2013-03-28 19:52:00,29.0,11.0,29.82,NE,46,0.0,1.0,47,0.00,,,0.10,,2013-03-29 03:52:00,
2013-03-28 20:02:00,29.0,13.0,29.82,NE,45,0.0,0.0,50,0.00,,,0.10,,2013-03-29 04:02:00,
2013-03-28 20:12:00,29.0,13.0,29.82,NE,45,0.0,0.0,50,0.00,,,0.10,,2013-03-29 04:12:00,
2013-03-28 20:22:00,28.0,11.0,29.82,NE,46,0.0,0.0,49,0.00,,,0.10,,2013-03-29 04:22:00,
2013-03-28 20:33:00,28.0,12.0,29.82,NE,45,0.0,0.0,50,0.00,,,0.10,,2013-03-29 04:33:00,
2013-03-28 20:42:00,28.0,12.0,29.82,NE,45,0.0,0.0,50,0.00,,,0.10,,2013-03-29 04:42:00,
2013-03-28 20:52:00,26.0,11.0,29.82,NE,46,0.0,0.0,52,0.00,,,0.10,,2013-03-29 04:52:00,
2013-03-28 21:02:00,26.0,10.0,29.82,NE,46,0.0,0.0,51,0.00,,,0.10,,2013-03-29 05:02:00,
2013-03-28 21:12:00,26.0,10.0,29.82,NE,46,0.0,0.0,51,0.00,,,0.10,,2013-03-29 05:12:00,
2013-03-28 21:22:00,26.0,10.0,29.82,NE,46,0.0,0.0,50,0.00,,,0.10,,2013-03-29 05:22:00,
2013-03-28 21:32:00,25.0,9.0,29.82,NE,46,0.0,0.0,49,0.00,,,0.10,,2013-03-29 05:32:00,
2013-03-28 21:43:00,25.0,9.0,29.82,NE,46,0.0,0.0,49,0.00,,,0.10,,2013-03-29 05:43:00,
2013-03-28 21:52:00,25.0,9.0,29.82,NE,45,0.0,0.0,50,0.00,,,0.10,,2013-03-29 05:52:00,
2013-03-28 22:02:00,24.0,9.0,29.82,NE,46,0.0,0.0,51,0.00,,,0.10,,2013-03-29 06:02:00,
2013-03-28 22:12:00,24.0,9.0,29.82,NE,46,0.0,0.0,51,0.00,,,0.10,,2013-03-29 06:12:00,
2013-03-28 22:22:00,23.0,8.0,29.82,NE,46,0.0,0.0,52,0.00,,,0.10,,2013-03-29 06:22:00,
2013-03-28 22:32:00,23.0,8.0,29.82,NE,45,0.0,0.0,53,0.00,,,0.10,,2013-03-29 06:32:00,
2013-03-28 22:42:00,23.0,8.0,29.82,NE,45,0.0,0.0,53,0.00,,,0.10,,2013-03-29 06:42:00,
2013-03-28 22:52:00,23.0,8.0,29.82,NE,45,0.0,0.0,53,0.00,,,0.10,,2013-03-29 06:52:00,
2013-03-28 23:02:00,21.0,9.0,29.82,NE,45,0.0,0.0,59,0.00,,,0.10,,2013-03-29 07:02:00,
2013-03-28 23:12:00,21.0,9.0,29.82,NE,45,0.0,0.0,59,0.00,,,0.10,,2013-03-29 07:12:00,
2013-03-28 23:22:00,20.0,9.0,29.82,NE,45,0.0,0.0,62,0.00,,,0.10,,2013-03-29 07:22:00,
2013-03-28 23:32:00,19.0,9.0,29.82,NE,46,0.0,0.0,64,0.00,,,0.10,,2013-03-29 07:32:00,
2013-03-28 23:42:00,19.0,9.0,29.82,NE,46,0.0,0.0,64,0.00,,,0.10,,2013-03-29 07:42:00,
2013-03-28 23:52:00,18.0,8.0,29.82,NE,45,0.0,1.0,65,0.00,,,0.10,,2013-03-29 07:52:00,